Location: Cerezo de Arriba
(41.2389°N, 3.5585°W)
Time: 04:38:18
(UTC+00:00)

Cosmos 2058 Rocket - Pass Details

Date: 19 May 2025
Orbit: 604 x 634 km, 82.5° (Epoch: 23 June)

Event Time Altitude Azimuth Distance (km) Brightness Sun altitude
Exits shadow 20:36:36 - 171° (S) 2,180 5.4 -11.2°
Reaches altitude 10° 20:37:02 10° 169° (S) 2,010 5.2 -11.3°
Maximum altitude 20:41:22 52° 93° (E) 788 3.3 -11.9°
Drops below altitude 10° 20:45:42 10° 18° (NNE) 2,016 6.0 -12.5°
Sets 20:47:59 0° 14° (NNE) 2,924 6.9 -12.9°
